Weather reports worldwide

Advertisment
Marina Di Ginosa, Italy (16325): temperature & dewpoint: 15.01.2021 05:00:00 - 21.01.2021 05:00:00 (CET)Marina Di Ginosa, Italy (16325): wind speed: 15.01.2021 05:00:00 - 21.01.2021 05:00:00 (CET)Marina Di Ginosa, Italy (16325): wind direction: 15.01.2021 05:00:00 - 21.01.2021 05:00:00 (CET)Marina Di Ginosa, Italy (16325): reduced air pressure: 15.01.2021 05:00:00 - 21.01.2021 05:00:00 (CET)Marina Di Ginosa, Italy (16325): visibility: 15.01.2021 05:00:00 - 21.01.2021 05:00:00 (CET)Marina Di Ginosa, Italy (16325): sunshine duration: 15.01.2021 05:00:00 - 21.01.2021 05:00:00 (CET)
Date & Time tt [°C] td [°C] ff [km/h] ff [kn] dd ppp [hPa] vv [km] sd [min]
21.01.2021 05:00:00 - - - - - - - -
21.01.2021 04:00:00 5,0 3,8 11 6 NNW 1020,1 30 0
21.01.2021 03:00:00 - - - - - - - -
21.01.2021 02:00:00 - - - - - - - -
21.01.2021 01:00:00 7,6 6,2 9 5 N 1020,8 30 0
21.01.2021 00:00:00 - - - - - - - -
20.01.2021 23:00:00 - - - - - - - -
20.01.2021 22:00:00 8,0 6,5 5 3 W 1021,6 30 0
20.01.2021 21:00:00 - - - - - - - -
20.01.2021 20:00:00 12,0 8,0 13 7 SW - 10 -
20.01.2021 19:00:00 13,4 9,1 9 5 SW 1021,6 30 0
20.01.2021 18:00:00 14,0 10,0 22 12 S - 10 -
20.01.2021 17:00:00 14,0 9,0 22 12 S - 10 -
20.01.2021 16:00:00 14,0 9,2 21 11 S 1021,6 30 3
20.01.2021 15:00:00 14,0 8,0 24 13 S - 10 -
20.01.2021 14:00:00 14,0 8,0 26 14 S - 10 -
20.01.2021 13:00:00 13,4 8,0 9 5 SSE 1022,6 30 55
20.01.2021 12:00:00 12,0 7,0 5 3 - - 10 -
20.01.2021 11:00:00 9,0 5,0 4 2 - - 10 -
20.01.2021 10:00:00 7,0 4,7 4 2 N 1024,4 30 60
20.01.2021 09:00:00 3,0 2,0 11 6 WNW - 10 -
20.01.2021 08:00:00 2,0 1,0 13 7 WNW - 10 -
20.01.2021 07:00:00 2,2 1,2 15 8 NW 1023,5 30 0
20.01.2021 06:00:00 2,0 1,0 13 7 NW - 10 -
20.01.2021 05:00:00 2,0 1,0 11 6 NNW - 10 -
20.01.2021 04:00:00 2,0 1,1 11 6 NNW 1024,0 30 0
20.01.2021 03:00:00 2,0 1,0 11 6 NNW - 10 -
20.01.2021 02:00:00 2,0 1,0 11 6 NW - 10 -
20.01.2021 01:00:00 2,8 2,1 9 5 NNW 1024,3 30 0
20.01.2021 00:00:00 3,0 2,0 8 4 NNW - 10 -
19.01.2021 23:00:00 3,0 2,0 11 6 NNW - 10 -
19.01.2021 22:00:00 3,8 2,6 13 7 WNW 1024,5 30 0
19.01.2021 21:00:00 4,0 3,0 13 7 W - 10 -
19.01.2021 20:00:00 5,0 4,0 11 6 WNW - 10 -
19.01.2021 19:00:00 5,8 3,5 11 6 WSW 1024,0 30 0
19.01.2021 18:00:00 6,0 3,0 13 7 SSW - 10 -
19.01.2021 17:00:00 10,0 4,0 13 7 SW - 10 -
19.01.2021 16:00:00 12,8 1,8 15 8 SSW 1023,3 30 60
19.01.2021 15:00:00 13,0 -1,0 9 5 NW - 10 -
19.01.2021 14:00:00 12,0 -2,0 16 9 WNW - 10 -
19.01.2021 13:00:00 11,8 -0,4 9 5 WNW 1023,1 30 60
19.01.2021 12:00:00 11,0 1,0 9 5 W - 10 -
19.01.2021 11:00:00 9,0 2,0 9 5 W - 10 -
19.01.2021 10:00:00 5,6 1,3 4 2 WNW 1024,7 30 60
19.01.2021 09:00:00 4,0 2,0 8 4 WNW - 10 -
19.01.2021 08:00:00 3,0 2,0 13 7 WNW - 10 -
19.01.2021 07:00:00 3,0 1,4 15 8 W 1023,9 15 0
19.01.2021 06:00:00 3,0 2,0 13 7 NW - 10 -
19.01.2021 05:00:00 3,0 1,0 9 5 W - 10 -
19.01.2021 04:00:00 3,2 1,6 15 8 WNW 1022,9 15 0
19.01.2021 03:00:00 3,0 2,0 15 8 NW - 10 -
19.01.2021 02:00:00 3,0 2,0 13 7 WNW - 10 -
19.01.2021 01:00:00 3,2 1,9 11 6 WNW 1022,6 15 0
19.01.2021 00:00:00 3,0 2,0 13 7 W - 10 -
18.01.2021 23:00:00 3,0 2,0 13 7 NW - 10 -
18.01.2021 22:00:00 3,0 1,2 13 7 WNW 1021,7 15 0
18.01.2021 21:00:00 3,0 1,0 13 7 W - 10 -
18.01.2021 20:00:00 3,0 0,0 13 7 WNW - 10 -
18.01.2021 19:00:00 4,4 -0,6 9 5 WNW 1020,8 15 0
18.01.2021 18:00:00 6,0 -1,0 13 7 NNW - 10 -
18.01.2021 17:00:00 7,0 -2,0 13 7 NNW - 10 -
18.01.2021 16:00:00 8,0 -2,6 18 10 NNW 1019,4 30 35
18.01.2021 15:00:00 8,0 -5,0 24 13 NNW - 10 -
18.01.2021 14:00:00 8,0 -1,0 22 12 NNW - 10 -
18.01.2021 13:00:00 8,2 0,7 24 13 NNW 1018,8 30 18
18.01.2021 12:00:00 7,0 0,0 22 12 NNW - 10 -
18.01.2021 11:00:00 7,0 2,0 24 13 NNW - 10 -
18.01.2021 10:00:00 7,0 4,1 22 12 NW 1018,5 30 60
18.01.2021 09:00:00 4,0 3,0 11 6 W - 10 -
18.01.2021 08:00:00 4,0 3,0 9 5 W - 10 -
18.01.2021 07:00:00 3,8 2,9 13 7 NNW 1016,4 20 0
18.01.2021 06:00:00 4,0 3,0 13 7 WNW - 10 -
18.01.2021 05:00:00 4,0 3,0 15 8 NW - 10 -
18.01.2021 04:00:00 3,6 2,7 15 8 NW 1014,0 20 0
18.01.2021 03:00:00 4,0 3,0 9 5 WNW - 10 -
18.01.2021 02:00:00 5,0 3,0 9 5 NW - 10 -
18.01.2021 01:00:00 4,0 2,7 13 7 N 1013,3 20 0
18.01.2021 00:00:00 5,0 4,0 13 7 NNE - 10 -
17.01.2021 23:00:00 7,0 5,0 11 6 NE - 10 -
17.01.2021 22:00:00 7,0 5,8 24 13 ENE 1012,8 20 0
17.01.2021 21:00:00 - - - - - - - -
17.01.2021 20:00:00 8,0 6,0 15 8 E - 10 -
17.01.2021 19:00:00 8,4 6,9 11 6 ESE 1012,4 20 0
17.01.2021 18:00:00 9,0 4,0 15 8 SE - 10 -
17.01.2021 17:00:00 9,0 2,0 13 7 S - 10 -
17.01.2021 16:00:00 8,8 0,3 15 8 SSE 1012,4 20 0
17.01.2021 15:00:00 10,0 0,0 11 6 S - 10 -
17.01.2021 14:00:00 9,0 -2,0 9 5 SSE - 10 -
17.01.2021 13:00:00 8,0 -2,3 9 5 SSE 1014,3 20 2
17.01.2021 12:00:00 7,0 -4,0 4 2 - - 10 -
17.01.2021 11:00:00 6,0 -2,0 9 5 W - 10 -
17.01.2021 10:00:00 3,8 -1,5 11 6 WNW 1016,4 20 57
17.01.2021 09:00:00 2,0 -1,0 9 5 WNW - 10 -
17.01.2021 08:00:00 3,0 1,0 15 8 WNW - 10 -
17.01.2021 07:00:00 3,0 1,0 11 6 W 1016,5 20 0
17.01.2021 06:00:00 4,0 1,0 15 8 WNW - 10 -
17.01.2021 05:00:00 4,0 0,0 16 9 WNW - 10 -
17.01.2021 04:00:00 3,8 0,1 18 10 WNW 1016,5 20 0
17.01.2021 03:00:00 5,0 2,0 21 11 WNW - 10 -
17.01.2021 02:00:00 5,0 1,0 13 7 NW - 10 -
17.01.2021 01:00:00 4,8 1,3 21 11 NW 1016,5 20 0
17.01.2021 00:00:00 5,0 2,0 21 11 NW - 10 -
16.01.2021 23:00:00 5,0 2,0 15 8 N - 10 -
16.01.2021 22:00:00 5,0 0,9 21 11 N 1016,5 20 0
16.01.2021 21:00:00 5,0 1,0 13 7 NW - 10 -
16.01.2021 20:00:00 5,0 2,0 13 7 N - 10 -
16.01.2021 19:00:00 6,0 0,1 8 4 NNW 1014,7 25 0
16.01.2021 18:00:00 7,0 1,0 22 12 WNW - 10 -
16.01.2021 17:00:00 7,0 3,0 15 8 N - 10 -
16.01.2021 16:00:00 8,0 0,7 22 12 N 1013,4 25 51
16.01.2021 15:00:00 8,0 1,0 21 11 N - 10 -
16.01.2021 14:00:00 8,0 1,0 28 15 N - 10 -
16.01.2021 13:00:00 8,2 -5,3 24 13 N 1012,7 25 23
16.01.2021 12:00:00 8,0 -2,0 24 13 NNW - 10 -
16.01.2021 11:00:00 8,0 -1,0 18 10 N - 10 -
16.01.2021 10:00:00 7,2 0,0 15 8 NNW 1012,6 20 15
16.01.2021 09:00:00 6,0 -1,0 16 9 N - 10 -
16.01.2021 08:00:00 6,0 2,0 16 9 NW - 10 -
16.01.2021 07:00:00 4,8 3,1 9 5 WNW 1011,7 30 0
16.01.2021 06:00:00 10,0 8,0 13 7 NW - 10 -
16.01.2021 05:00:00 10,0 8,0 16 9 NW - 10 -
16.01.2021 04:00:00 5,2 2,9 16 9 WNW 1010,9 30 0
16.01.2021 03:00:00 10,0 9,0 15 8 WNW - 10 -
16.01.2021 02:00:00 5,0 4,0 15 8 WNW - 10 -
16.01.2021 01:00:00 5,2 3,9 13 7 WNW 1010,9 30 0
16.01.2021 00:00:00 5,0 4,0 11 6 WNW - 10 -
15.01.2021 23:00:00 5,0 4,0 13 7 NW - 10 -
15.01.2021 22:00:00 6,0 4,8 11 6 NW 1011,9 30 0
15.01.2021 21:00:00 6,0 5,0 9 5 NW - 10 -
15.01.2021 20:00:00 6,0 5,0 11 6 NNW - 10 -
15.01.2021 19:00:00 6,6 5,4 4 2 N 1011,5 15 0
15.01.2021 18:00:00 7,0 5,0 9 5 NNW - 10 -
15.01.2021 17:00:00 7,0 5,0 5 3 NNE - 10 -
15.01.2021 16:00:00 9,2 4,0 9 5 W 1010,3 40 0
15.01.2021 15:00:00 10,0 4,0 8 4 WNW - 10 -
15.01.2021 14:00:00 11,0 3,0 4 2 - - 10 -
15.01.2021 13:00:00 11,0 1,5 8 4 SE 1010,8 40 18
15.01.2021 12:00:00 11,0 1,0 8 4 NNW - 10 -
15.01.2021 11:00:00 9,0 1,0 11 6 NNW - 10 -
15.01.2021 10:00:00 8,0 1,8 9 5 NW 1012,4 35 1
15.01.2021 09:00:00 7,0 3,0 8 4 NW - 10 -
15.01.2021 08:00:00 7,0 3,0 8 4 NW - 10 -
15.01.2021 07:00:00 7,0 5,0 8 4 WNW 1011,5 20 0
15.01.2021 06:00:00 7,0 3,0 9 5 NW - 10 -
15.01.2021 05:00:00 8,0 2,0 11 6 NNW - 10 -

tt = temperature
td = dewpoint
ff = wind speed
dd = wind direction
ppp = reduced air pressure
vv = visibility
sd = sunshine duration

Next stations